This is the latest recevied weather packets stored in our database for station/object S56VIL-11. If no packets are shown the sender has not sent any weather packets the latest 10 day(s).
| Time | Temp. | Humidity | Pressure | Rain* | Wind** | Luminosity | Snow |
|---|---|---|---|---|---|---|---|
| 1788024695 | 18.33° C | 70% | 1029.7 hPa | - | - | - | - |
| 1788023798 | 18.89° C | 70% | 1029.8 hPa | - | - | - | - |
| 1788022872 | 18.89° C | 69% | 1029.8 hPa | - | - | - | - |
| 1788021972 | 20° C | 69% | 1029.7 hPa | - | - | - | - |
| 1788021075 | 21.11° C | 69% | 1029.8 hPa | - | - | - | - |
| 1788020172 | 21.67° C | 68% | 1029.7 hPa | - | - | - | - |
| 1788019272 | 21.11° C | 68% | 1029.7 hPa | - | - | - | - |
| 1788017474 | 20° C | 69% | 1029.8 hPa | - | - | - | - |
| 1788016572 | 20.56° C | 68% | 1030.1 hPa | - | - | - | - |
| 1788015699 | 20.56° C | 69% | 1030.1 hPa | - | - | - | - |
| 1788014771 | 20.56° C | 69% | 1029.9 hPa | - | - | - | - |
| 1788013873 | 20.56° C | 69% | 1030 hPa | - | - | - | - |
| 1788012971 | 21.11° C | 69% | 1030.2 hPa | - | - | - | - |
| 1788012073 | 21.67° C | 68% | 1029.9 hPa | - | - | - | - |
| 1788011171 | 22.78° C | 68% | 1029.8 hPa | - | - | - | - |
| 1788010273 | 23.89° C | 68% | 1029.8 hPa | - | - | - | - |
| 1788009371 | 23.89° C | 67% | 1029.5 hPa | - | - | - | - |
| 1788008472 | 23.89° C | 68% | 1029.6 hPa | - | - | - | - |
| 1788007571 | 26.11° C | 65% | 1029.3 hPa | - | - | - | - |
| 1788006672 | 27.22° C | 66% | 1029.1 hPa | - | - | - | - |
| 1788005771 | 26.11° C | 66% | 1029.6 hPa | - | - | - | - |
| 1788004877 | 24.44° C | 68% | 1029.7 hPa | - | - | - | - |
| 1788003968 | 23.89° C | 68% | 1029.7 hPa | - | - | - | - |
| 1788003071 | 23.89° C | 68% | 1029.7 hPa | - | - | - | - |
| 1788002168 | 23.89° C | 69% | 1029.7 hPa | - | - | - | - |
* Rain since midnight (hover to see other rain measurements)
** Current wind speed in m/s (hover to see current wind gust speed)